Погода в Лоуни

Чехия     50°21′19″N   13°47′47″E
темп.,
°C
ветер,
м/с
пор.,
м/с
влажн.,
%
обл.,
%
осадки,
мм/ч
давл.,
гПа
погр.,
м
24 июня, чт
чт2423:00+16ссв2593100 0.0 1018189
02:00+15с2599100 9.9 1016216
05:00+16зсз5899100 16.3 1016363
08:00+17сз459277 21.1 1017436
11:00+18ссв338596 0.0 1018554
14:00+20св337472 0.1 1017942
17:00+21св437181 0.1 1016981
20:00+18ссв358190 0.2 1015298
25 июня, пт
пт2523:00+15ссз1191100 0.0 101624
02:00+14зюз1192100 0.1 101711
05:00+13з1194100 0.0 101711
08:00+16з1183100 0.0 1017284
11:00+19юз227599 1.4 1017775
14:00+17юз2385100 4.6 1017217
17:00+18зюз0184100 1.8 101662
20:00+17зсз1187100 3.6 101714
26 июня, сб
сб2623:00+15ссз1195100 1.7 101811
02:00+14сз1196100 4.0 101813
05:00+14всв119690 0.3 101911
08:00+16с118865 0.4 1020309
11:00+18св217880 0.1 1019610
14:00+21св216335 0.4 10181133
17:00+22св225947 0.4 10181330
20:00+19св34825 0.7 1017104
27 июня, вс
вс2723:00+16св1188100 0.1 101911
02:00+14всв0191100 0.1 101910
05:00+13з1193100 0.0 101910
08:00+17св11856 0.0 1018246
11:00+21в226798 0.0 10181068
14:00+24всв225658 0.1 10171549
17:00+24всв3257100 0.0 10161238
20:00+22всв227295 0.0 101627
28 июня, пн
пн2823:00+18вюв228066 0.0 101711
02:00+16всв2291100 0.0 101714
05:00+15в119481 0.0 101712
08:00+19всв23815 0.0 1017288
11:00+23в4564100 0.0 1016763
14:00+26в445298 0.0 10151167
17:00+27всв3454100 0.0 1014977
20:00+23всв367320 0.0 1013132